星链-35110(STARLINK-35110)

导读 | 豆包AI

STARLINK-35110是美国SpaceX公司星链星座的低轨通信卫星,于2025年9月6日发射入轨。它延续星链卫星的设计,配备相控阵天线与氩气推进系统,搭载星间激光链路实现卫星组网,依托近550公里低轨轨道提供低时延宽带互联网接入,可支持流媒体、视频通话、直连手机等应用,是星链全球星座部署的组成部分,进一步扩展了星链系统的全球覆盖能力。

基本信息
目录编号:
65539
目录名称:
STARLINK-35110
国际标识:
2025-200V
轨道中心:
EARTH
卫星名称:
星链-35110
卫星全名:
星链-35110(STARLINK-35110)
卫星状态:
在轨 (已飞行210 天)
发射日期:
2025-09-06 UTC
国别 :
美国 (US)
星等 :
--
轨道信息
数据来源 国际轨道数据
星历时间: 2026-04-04T01:41:44+0800
17小时前
查看轨道信息
半长轴: 6927.693km
偏心率: 0.0000894
轨道倾角: 97.603°
近地点辐角 105.095°
升交点赤经 164.551°
平近点角 255.038°
近地点: 548.936km
远地点: 550.176km
周期: 95.641分钟
每日圈数: 15.056357
详细信息
固有亮度:
5
最大亮度:
2.5
卫星平台:
Starlink V1.0
覆盖范围:
全球
运营商:
太空探索技术公司
运营商所在国:
美国
制造商(研发单位):
太空探索技术公司
制造商所在国:
美国
使用方式:
暂无
卫星简介
Starlink 计划是 SpaceX 推出的全球卫星互联网项目,通过发射低轨道卫星,为全球尤其是偏远地区提供高速、低延迟的互联网服务。自 2019 年起,Starlink 已部署数千颗卫星,旨在缩小全球数字鸿沟,推动互联网普及。该项目还为军事、航空等行业提供通信支持,带来广泛经济效益。
2D轨道图
3D轨道图
轨道高度分析图
轨道倾角分析图
轨道综合分析图
查看轨道综合分析图